Lid_Strength_Index
9 9 9 9 9 9 10 9 11 10 10 8 7 6 5 5 5 4 4 4 4 3 2 3 3 3 3 3 2 3 3 3 3 3 2 2 1 1 2 2 3 3 3 2
10 9 9 10 9 9 9 9 9 9 9 6 5 5 5 5 4 4 4 4 3 3 3 3 3 3 3 3 4 3 3 3 4 3 3 2 1 2 2 3 4 3 2 1
12 10 10 12 9 9 8 8 8 10 8 6 6 5 5 5 4 4 4 3 3 3 2 2 3 4 3 4 3 4 3 4 4 3 2 1 1 3 4 3 3 2 2 1
12 11 16 9 7 7 8 8 7 7 7 6 6 5 4 4 4 4 4 3 3 2 2 2 3 2 2 3 4 4 4 4 3 3 2 2 3 3 3 2 2 2 1 1
13 13 11 9 8 9 9 9 7 7 6 6 5 5 5 4 3 3 3 3 2 2 2 2 2 2 3 3 4 4 4 4 3 3 2 4 4 4 3 2 2 2 2 2
12 15 16 9 7 6 6 11 6 6 6 6 5 8 7 4 3 3 2 2 2 2 1 2 2 2 3 4 4 5 4 3 3 2 4 3 3 3 3 3 2 2 2 2
13 13 11 7 6 5 12 11 6 6 6 6 6 6 4 3 3 2 2 2 2 1 2 2 2 3 5 4 5 4 3 3 2 4 3 3 3 3 4 4 3 1 1 2
12 13 14 6 6 9 7 5 5 5 5 5 4 4 4 3 3 3 2 2 2 2 2 3 3 4 4 4 4 3 3 2 3 3 3 3 3 3 2 3 3 3 3 4
10 9 7 5 6 4 5 5 5 5 4 4 4 4 4 3 3 3 2 2 2 2 3 4 4 3 4 4 4 3 3 3 3 2 3 3 4 3 4 3 3 3 3 5
9 7 7 6 4 4 4 4 4 3 3 4 4 4 4 3 3 3 2 2 2 2 3 4 4 4 4 4 3 2 2 3 3 3 3 2 3 3 4 4 3 3 3 5
8 7 6 5 5 4 4 3 3 3 3 3 3 4 3 3 3 2 2 2 2 2 3 4 4 4 4 3 3 3 2 3 4 4 4 3 3 6 5 5 5 3 3 3
8 6 6 6 4 3 4 4 3 3 3 3 3 3 3 3 2 2 2 2 2 3 4 4 3 4 4 3 2 2 3 4 4 4 4 3 2 3 9 9 9 9 9 5
5 4 4 4 3 3 4 3 3 3 3 3 3 2 3 3 2 3 2 2 2 3 3 3 4 4 3 3 2 2 3 4 3 4 3 3 3 3 4 5 8 9 10 9
3 4 5 4 4 3 3 3 3 2 2 2 2 2 2 3 2 2 2 2 2 3 3 3 3 4 3 2 2 2 3 6 2 2 3 3 3 3 3 3 4 3 6 7
4 3 4 3 3 3 3 3 3 3 3 3 2 2 2 3 3 2 2 2 2 3 3 3 3 3 3 2 2 2 3 2 1 2 3 4 3 3 3 3 3 3 2 4
3 3 3 4 4 3 3 3 4 4 3 3 3 2 2 2 2 2 1 2 2 2 3 3 4 3 2 2 2 2 2 7 5 2 2 3 4 4 5 5 5 4 2 1
5 5 4 4 4 4 3 3 3 3 3 3 3 2 2 2 2 2 2 1 2 2 2 3 3 3 3 2 2 2 3 3 7 2 2 3 2 3 3 3 3 3 3 3
3 3 3 3 4 4 3 3 3 3 3 3 3 3 3 3 3 2 2 2 2 3 3 3 2 3 3 2 2 2 1 4 3 2 2 3 5 3 2 1 1 1 1 3
3 3 3 3 3 3 3 3 3 3 3 4 4 4 3 2 2 2 2 2 3 3 4 3 6 4 3 4 3 2 2 3 4 2 1 6 4 4 2 0 1 0 1 1
3 3 2 3 2 3 3 3 2 3 3 4 4 4 4 3 2 2 2 2 1 2 3 2 2 3 3 4 7 2 2 2 4 2 1 2 3 2 3 5 1 0 0 0
3 3 3 3 3 3 3 3 3 4 3 3 4 4 4 3 2 2 2 2 1 3 3 6 2 4 3 5 4 2 2 2 5 4 1 1 1 1 2 1 0 0 1 1
3 3 3 3 3 3 3 3 3 3 3 3 3 4 4 4 3 3 1 2 1 8 4 4 4 8 5 10 2 2 2 3 4 4 2 1 2 3 3 2 1 0 0 0
3 3 3 4 3 3 3 3 3 3 3 3 3 4 5 5 3 4 3 2 1 6 4 4 11 14 14 3 3 3 3 2 3 5 4 2 1 1 3 1 0 -0 -0 -0
4 4 4 4 4 5 5 4 2 2 2 3 3 4 4 4 3 1 1 6 9 7 5 8 10 14 13 4 4 3 3 2 3 5 5 7 1 0 -0 -0 0 1 1 1
5 5 6 6 5 6 5 5 4 2 3 3 3 4 3 2 3 2 3 4 9 6 5 12 13 13 4 4 4 3 3 2 2 4 5 5 2 2 2 0 1 1 0 0
4 4 4 5 5 4 5 4 3 2 2 3 3 3 2 2 1 3 4 6 4 7 5 7 6 4 4 4 5 4 4 4 2 1 5 6 4 4 3 3 2 3 1 1
4 7 4 4 4 3 4 3 3 3 3 3 3 2 3 3 2 3 6 3 4 4 5 6 5 5 4 3 5 5 5 4 6 2 2 5 4 2 3 2 3 3 1 4